Regional Weather Roundup
Issued by NWS

Home | Current Version | Previous Version | Graphics & Text | Print | Product List | Glossary On
Versions: 1 2 3 4 5 6 7 8 9 10 11 12 13 14 15 16 17 18 19 20 21 22 23 24 25 26 27 28 29 30 31 32 33 34 35 36 37 38 39 40 41 42 43 44 45 46 47 48 49 50
000
ASUS43 KLSX 021459
RWRMO

WEATHER SUMMARY FOR MISSOURI
NATIONAL WEATHER SERVICE SPRINGFIELD MO
1000 AM CDT TUE SEP 02 2014

NOTE: "FAIR" INDICATES FEW OR NO CLOUDS BELOW 12,000 FEET WITH NO
       SIGNIFICANT WEATHER AND/OR OBSTRUCTIONS TO VISIBILITY.
       CURRENT SKY AND/OR WEATHER CONDITIONS ARE NOT AVAILABLE FOR
       CHILLICOTHE AND FARMINGTON.

MOZ001>031-035>038-043-044-053-054-021600-
...NORTHERN AND WESTERN MISSOURI...

CITY           SKY/WX    TMP DP  RH WIND       PRES   REMARKS
KANSAS CTY INT CLOUDY    69  68  96 W3        30.00R
KANSAS C DTWN  CLOUDY    72  69  90 N3        29.99R FOG
LEE`S SUMMIT   CLOUDY    71  68  90 CALM      30.01R FOG
ST JOSEPH      PTSUNNY   69  66  90 CALM      29.98S
KIRKSVILLE     PTSUNNY   71  65  81 NW7       29.98S

$$
MOZ066>068-077>081-088>096-101>105-021600-
...SOUTHWEST MISSOURI...

CITY           SKY/WX    TMP DP  RH WIND       PRES   REMARKS
SPRINGFIELD    CLOUDY    68  65  90 S5        29.99F
JOPLIN         LGT RAIN  67  66  97 S8        30.02R

$$
MOZ032>034-039>042-045>050-055>058-069>072-021600-
...CENTRAL MISSOURI...

CITY           SKY/WX    TMP DP  RH WIND       PRES   REMARKS
COLUMBIA       CLOUDY    72  70  93 NW7       29.99R
JEFFERSON CITY CLOUDY    72  70  93 W6        29.97S
ROLLA            N/A    N/A N/A N/A MISG      29.97S
SEDALIA        CLOUDY    73  70  90 W5        30.00R
OSAGE BEACH    CLOUDY    70  64  83 SW6       29.98S

$$
MOZ051-052-059>065-021600-
...EAST CENTRAL MISSOURI...

CITY           SKY/WX    TMP DP  RH WIND       PRES   REMARKS
ST LOUIS INTL  CLOUDY    75  70  84 W10       29.96R
SPIRIT OF STL  CLOUDY    73  70  90 W5        29.95R
ST CHARLES     CLOUDY    73  69  87 W6        29.95R

$$
MOZ072>076-082>087-097>100-106>115-021600-
...SOUTH CENTRAL AND SOUTHEAST MISSOURI...

CITY           SKY/WX    TMP DP  RH WIND       PRES   REMARKS
CAPE GIRARDEAU CLOUDY    77  72  84 W7        29.96S
FARMINGTON     CLOUDY    73  64  73 W8        30.00R
POPLAR BLUFF   CLOUDY    73  66  78 W9        29.98R
WEST PLAINS    LGT RAIN  67  64  90 S8        30.02F

$$



USA.gov is the U.S. government's official web portal to all federal, state and local government web resources and services.